Regional Weather Roundup
Issued by NWS Green Bay, WI

Home | Current Version | Previous Version | Graphics & Text | Print | Product List | Glossary Off
Versions: 1 2 3 4 5 6 7 8 9 10 11 12 13 14 15 16 17 18 19 20 21 22 23 24 25 26 27 28 29 30 31 32 33 34 35 36 37 38 39 40 41 42 43 44 45 46 47 48 49 50

000
ASUS43 KGRB 191659
RWRGRB

NORTH-CENTRAL AND NORTHEAST WISCONSIN REGIONAL WEATHER ROUNDUP
NATIONAL WEATHER SERVICE GREEN BAY WI
1200 PM CDT SUN APR 19 2015

WIZ005-009-010>012-018-019-191800-
NORTH CENTRAL WISCONSIN

CITY           SKY/WX    TMP DP  RH WIND       PRES   REMARKS
IRONWOOD       CLOUDY    52  34  50 S8        29.68F
MANITOWISH WTR NOT AVBL
ARBOR VITAE    NOT AVBL
EAGLE RIVER    NOT AVBL
LAND O LAKES   NOT AVBL
RHINELANDER    CLOUDY    54  32  43 SE9       29.77F
PHILLIPS       NOT AVBL
ANTIGO         NOT AVBL
TOMAHAWK       NOT AVBL
MERRILL        NOT AVBL
$$

WIZ013-073-191800-
NORTHEAST WISCONSIN

CITY           SKY/WX    TMP DP  RH WIND       PRES   REMARKS
IRON MOUNTAIN  PTSUNNY   51  29  42 SE15G25   29.83F
MARINETTE      CLOUDY    43  32  65 E9        29.87F
$$

WIZ017-030-035>037-045-191800-
CENTRAL WISCONSIN

CITY           SKY/WX    TMP DP  RH WIND       PRES   REMARKS
MEDFORD        NOT AVBL
WAUSAU         CLOUDY    59  34  39 SE14      29.73F
MOSINEE        PTSUNNY   57  34  41 SE10G16   29.76F
MARSHFIELD     CLOUDY    58  34  40 SE13      29.73F
WISC RAPIDS    PTSUNNY   62  32  32 S9        29.74F
STEVENS POINT  NOT AVBL
WAUPACA        NOT AVBL
SHAWANO        NOT AVBL
CLINTONVILLE   NOT AVBL
$$

WIZ038-039-048-051-191800-
FOX VALLEY

CITY           SKY/WX    TMP DP  RH WIND       PRES   REMARKS
NWS GREEN BAY  PTSUNNY   58  33  39 SE18      29.82F
APPLETON       MOSUNNY   59  30  33 SE13      29.80F
OSHKOSH        SUNNY     62  36  37 SE15G23   29.76F
FOND DU LAC    SUNNY     62  34  35 SE20G28   29.76F
$$

WIZ022-050-052-191800-
EAST CENTRAL WISCONSIN

CITY           SKY/WX    TMP DP  RH WIND       PRES   REMARKS
STURGEON BAY   PTSUNNY   48  32  53 NE5       29.87F
MANITOWOC      NOT AVBL
SHEBOYGAN      PTSUNNY   56  31  38 SE12G21   29.82F
$$

LMZ563-521-522-541>543-191800-
LAKESHORE

STATION/POSITION TIME  TEMP    WIND        PRES    VSBY  WAVE
                       AIR SEA DIR/SP/G                  HT/PER
                 (UTC) (F)     (DEG/KT/KT) (MB)    (MI)  (FT/S)
SHEBOYGAN LKSHOR 1600   46     190/  4/  5 1011.5F
KEWAUNEE LKSHORE 1600   42      40/  9/ 10 1010.4F
NORTHPORT PIER   1600   40      60/ 12/ 17 1013.2F
CHAMBERS ISLAND  1600   42      40/  6/  8 1012.5F
MENOMINEE LKSHOR 1600   39      20/ 13/ 15 1012.4F
$$



USA.gov is the U.S. government's official web portal to all federal, state and local government web resources and services.